1498762800.48,9153,16.5,73008.5,3.61,-4.77,-17.69,0,*7A
1498762801.71,9154,16.5,73020.3,3.63,-4.73,-17.59,0,*78
1498762802.94,9155,16.5,73018.8,3.63,-4.77,-17.55,0,*71
1498762804.15,9156,16.56,73026.8,3.63,-4.89,-17.73,0,*77
1498762805.35,9157,16.5,73028.3,3.63,-4.85,-17.73,0,*7A
1498762806.57,9158,16.56,73034.3,3.63,-4.89,-17.83,0,*76
1498762807.76,9159,16.56,73026.0,3.63,-4.99,-17.83,0,*76
1498762808.98,9160,16.56,73034.0,3.63,-5.03,-17.83,0,*7E
1498762810.16,9161,16.56,73022.3,3.63,-4.99,-17.73,0,*72
1498762811.38,9162,16.5,72998.3,3.63,-5.03,-17.87,0,*78
1498762812.59,9163,16.56,73012.0,3.63,-4.89,-17.73,0,*71
1498762813.8,9164,16.56,72998.5,3.63,-4.89,-17.69,0,*7D
1498762815.01,9165,16.5,72998.3,3.63,-5.07,-17.73,0,*70
1498762816.2,9166,16.56,73004.0,3.63,-4.99,-17.69,0,*7E
1498762817.43,9167,16.56,73008.5,3.61,-5.03,-17.73,0,*74
1498762818.65,9168,16.56,73008.8,3.63,-5.15,-17.83,0,*71
1498762819.87,9169,16.5,73012.3,3.63,-5.19,-17.87,0,*78
1498762821.11,9170,16.56,73018.5,3.63,-5.19,-17.97,0,*71
1498762822.33,9171,16.5,73020.3,3.63,-5.19,-17.87,0,*71
1498762823.55,9172,16.5,73018.5,3.63,-5.27,-17.87,0,*7F
1498762824.77,9173,16.5,73016.8,3.63,-5.19,-17.87,0,*73
1498762825.98,9174,16.56,73028.8,3.63,-5.27,-17.73,0,*72
1498762827.22,9175,16.5,73016.5,3.63,-5.19,-17.59,0,*76
1498762828.48,9176,16.5,73016.5,3.61,-5.27,-17.59,0,*7A
1498762829.74,9177,16.5,73016.5,3.61,-5.19,-17.55,0,*7A
1498762831.01,9178,16.5,73026.5,3.61,-5.19,-17.41,0,*70
1498762832.25,9179,16.5,73026.3,3.63,-5.27,-17.59,0,*77
1498762833.43,9180,16.5,73024.5,3.63,-5.39,-17.73,0,*76
1498762834.62,9181,16.5,73028.0,3.63,-5.39,-17.69,0,*7C
1498762835.86,9182,16.56,73034.5,3.61,-5.27,-17.69,0,*72
1498762837.07,9183,16.5,73038.8,3.61,-5.39,-17.73,0,*77
1498762838.28,9184,16.5,73042.0,3.61,-5.39,-17.87,0,*7B
1498762839.49,9185,16.5,73040.0,3.63,-5.43,-17.97,0,*74
1498762840.71,9186,16.5,73034.8,3.59,-5.47,-17.93,0,*7E
1498762841.94,9187,16.5,73042.0,3.61,-5.43,-17.97,0,*74
1498762843.19,9188,16.5,73042.8,3.61,-5.51,-17.97,0,*78
1498762844.43,9189,16.5,73046.0,3.61,-5.51,-18.01,0,*79
1498762845.67,9190,16.5,73040.3,3.61,-5.51,-17.97,0,*71
1498762846.88,9191,16.5,73042.3,3.59,-5.61,-18.07,0,*7E
1498762848.1,9192,16.5,73038.8,3.59,-5.61,-18.07,0,*7D
1498762849.33,9193,16.56,73036.5,3.59,-5.61,-17.93,0,*7E
1498762850.55,9194,16.5,73042.3,3.59,-5.69,-18.07,0,*73
1498762851.76,9195,16.5,73040.0,3.59,-5.61,-18.07,0,*7A
1498762852.98,9196,16.56,73038.5,3.59,-5.61,-18.07,0,*79
1498762854.2,9197,16.5,73038.8,3.59,-5.55,-18.01,0,*79
1498762855.43,9198,16.5,73048.3,3.59,-5.61,-18.01,0,*71
1498762856.65,9199,16.5,73042.3,3.59,-5.47,-17.93,0,*70
1498762857.86,9200,16.5,73042.8,3.61,-5.51,-17.87,0,*7A
1498762859.11,9201,16.56,73038.0,3.61,-5.55,-18.01,0,*7E
1498762860.33,9202,16.56,73044.3,3.61,-5.55,-17.83,0,*78
1498762861.55,9203,16.56,73044.5,3.61,-5.51,-17.83,0,*7D
1498762862.79,9204,16.56,73042.0,3.61,-5.65,-17.87,0,*79
1498762864.04,9205,16.56,73044.8,3.61,-5.55,-17.97,0,*7A
1498762865.28,9206,16.56,73048.3,3.61,-5.77,-18.11,0,*78
1498762866.53,9207,16.56,73050.0,3.61,-5.69,-18.11,0,*76
1498762867.76,9208,16.56,73042.0,3.59,-5.61,-18.01,0,*7B
1498762869.01,9209,16.5,73042.0,3.61,-5.69,-18.11,0,*78
1498762870.27,9210,16.5,73044.8,3.61,-5.77,-17.97,0,*7E
1498762871.52,9211,16.5,73042.0,3.61,-5.77,-18.11,0,*7E
1498762872.78,9212,16.5,73044.8,3.61,-5.69,-17.97,0,*73
1498762874.02,9213,16.5,73056.8,3.61,-5.65,-17.87,0,*7F
1498762875.27,9214,16.56,73054.0,3.61,-5.69,-17.87,0,*74
1498762876.51,9215,16.5,73038.3,3.61,-5.65,-17.87,0,*79
1498762877.78,9216,16.5,73040.8,3.61,-5.77,-17.97,0,*78
1498762878.96,9217,16.5,73024.8,3.59,-5.47,-17.73,0,*7B
1498762880.19,9218,16.5,73038.5,3.61,-5.55,-17.83,0,*73
1498762881.41,9219,16.5,73026.8,3.61,-5.55,-17.87,0,*76
1498762882.68,9220,16.5,73016.5,3.61,-5.77,-17.97,0,*7D
1498762883.9,9221,16.5,73014.3,3.63,-5.69,-17.87,0,*70
1498762885.16,9222,16.5,73026.3,3.61,-5.77,-17.97,0,*7F
1498762886.38,9223,16.5,73058.0,3.63,-5.69,-17.87,0,*72
1498762887.62,9224,16.5,73066.0,3.61,-5.69,-17.87,0,*77
1498762888.84,9225,16.5,73070.0,3.63,-5.77,-17.87,0,*7B
1498762890.09,9226,16.56,73062.5,3.63,-5.81,-17.97,0,*70
1498762891.33,9227,16.5,73036.8,3.63,-5.77,-17.97,0,*78
1498762892.52,9228,16.5,73046.3,3.63,-5.55,-17.69,0,*76
1498762893.75,9229,16.56,73034.5,3.61,-5.55,-17.87,0,*75
1498762894.99,9230,16.56,73038.5,3.61,-5.65,-17.87,0,*7E
1498762896.23,9231,16.5,73056.8,3.61,-5.89,-18.11,0,*7D
1498762897.45,9232,16.5,73062.3,3.63,-5.81,-18.11,0,*74
1498762898.66,9233,16.5,73018.5,3.63,-5.89,-18.25,0,*7A
1498762899.84,9234,16.5,72996.3,3.63,-5.97,-18.25,0,*72
1498762901.05,9235,16.56,73038.8,3.63,-5.93,-18.17,0,*76
1498762902.28,9236,16.5,73018.5,3.63,-5.93,-18.11,0,*73
1498762903.48,9237,16.5,73026.8,3.61,-5.97,-18.25,0,*73
1498762904.72,9238,16.5,73030.0,3.61,-5.93,-18.25,0,*78
1498762905.92,9239,16.5,73058.0,3.61,-5.97,-18.25,0,*7D
1498762907.13,9240,16.5,73024.3,3.63,-5.89,-18.17,0,*7F
1498762908.35,9241,16.5,73018.5,3.63,-5.77,-17.87,0,*79
1498762909.59,9242,16.5,73034.0,3.63,-5.89,-17.97,0,*7A
1498762910.84,9243,16.56,73044.0,3.63,-5.89,-17.97,0,*7B
1498762912.06,9244,16.5,73050.8,3.63,-5.69,-17.87,0,*73
1498762913.3,9245,16.5,73042.3,3.63,-5.89,-17.97,0,*7D
1498762914.52,9246,16.5,73048.8,3.63,-5.93,-18.11,0,*74
1498762915.7,9247,16.5,73056.8,3.63,-6.05,-18.17,0,*7F
1498762916.93,9248,16.5,73072.0,3.65,-5.93,-18.07,0,*7B
1498762918.12,9249,16.5,73066.0,3.65,-6.13,-18.21,0,*75
1498762919.36,9250,16.5,73060.3,3.71,-6.13,-18.31,0,*79
1498762920.58,9251,16.5,73066.3,3.65,-6.19,-18.41,0,*70
1498762921.8,9252,16.5,73058.8,3.65,-6.19,-18.41,0,*73
1498762923.01,9253,16.5,73050.3,3.63,-6.23,-18.45,0,*79
1498762924.2,9254,16.5,73048.5,3.63,-6.43,-18.49,0,*74
1498762925.41,9255,16.5,73042.3,3.61,-6.35,-18.49,0,*76
1498762926.6,9256,16.5,73048.0,3.63,-6.31,-18.45,0,*7F
1498762927.81,9257,16.5,73062.5,3.61,-6.31,-18.45,0,*7C
1498762929.01,9258,16.5,73066.3,3.63,-6.35,-18.45,0,*75
1498762930.19,9259,16.56,73068.3,3.63,-6.31,-18.41,0,*74
1498762931.38,9260,16.5,73052.0,3.63,-6.31,-18.41,0,*7E
1498762932.59,9261,16.5,73066.8,3.61,-6.31,-18.41,0,*7D
1498762933.8,9262,16.5,73066.3,3.61,-6.31,-18.41,0,*7E
1498762935.01,9263,16.5,73068.3,3.63,-6.05,-18.31,0,*7D
1498762936.22,9264,16.56,73072.0,3.63,-6.23,-18.17,0,*7A
1498762937.4,9265,16.5,73080.8,3.63,-6.05,-18.17,0,*7F
1498762938.59,9266,16.5,73078.8,3.63,-6.05,-18.17,0,*7C
1498762939.81,9267,16.5,73068.8,3.63,-6.09,-18.31,0,*75
1498762941.05,9268,16.5,73070.5,3.61,-6.09,-18.31,0,*78
1498762942.27,9269,16.5,73070.5,3.63,-6.09,-18.31,0,*7B
1498762943.49,9270,16.5,73064.0,3.63,-6.09,-18.31,0,*73
1498762944.67,9271,16.5,73062.3,3.63,-6.05,-18.25,0,*7B
1498762945.92,9272,16.5,73060.5,3.61,-5.93,-18.11,0,*71
1498762947.13,9273,16.5,73064.3,3.61,-5.97,-18.17,0,*72
1498762948.37,9274,16.5,73064.8,3.61,-5.93,-18.11,0,*77
1498762949.64,9275,16.5,73068.5,3.61,-5.93,-18.01,0,*77
1498762950.88,9276,16.5,73058.5,3.63,-5.93,-18.01,0,*76
1498762952.15,9277,16.5,73068.0,3.61,-5.93,-17.97,0,*75
1498762953.37,9278,16.5,73062.3,3.63,-5.89,-17.87,0,*72
1498762954.64,9279,16.5,73060.8,3.61,-5.81,-17.97,0,*78
1498762955.88,9280,16.5,73058.0,3.61,-5.89,-17.87,0,*77
1498762957.1,9281,16.5,73056.5,3.63,-5.89,-17.87,0,*74
1498762958.37,9282,16.5,73052.0,3.61,-5.89,-17.97,0,*74
1498762959.62,9283,16.5,73052.5,3.61,-5.93,-17.87,0,*7F
1498762960.86,9284,16.5,73052.0,3.61,-5.93,-17.87,0,*78
1498762962.1,9285,16.5,73056.8,3.61,-5.93,-17.73,0,*72
1498762963.37,9286,16.5,73052.8,3.61,-5.93,-17.59,0,*79
1498762964.61,9287,16.5,73054.0,3.59,-5.93,-17.55,0,*7F
1498762965.86,9288,16.5,73048.0,3.61,-5.89,-17.35,0,*76
1498762967.1,9289,16.5,73044.5,3.59,-5.93,-17.41,0,*74
1498762968.32,9290,16.5,73044.3,3.59,-5.97,-17.41,0,*78
1498762969.53,9291,16.5,73046.3,3.59,-5.97,-17.41,0,*79
1498762970.76,9292,16.5,73046.5,3.61,-6.09,-17.35,0,*76
1498762972.0,9293,16.5,73054.3,3.57,-6.01,-17.21,0,*7F
1498762973.24,9294,16.5,73054.8,3.57,-6.01,-17.17,0,*7D
1498762974.43,9295,16.5,73058.0,3.59,-5.97,-16.97,0,*77
1498762975.65,9296,16.5,73058.3,3.57,-6.01,-16.93,0,*72
1498762976.86,9297,16.5,73062.5,3.57,-6.01,-16.89,0,*78
1498762978.05,9298,16.5,73062.8,3.59,-5.97,-16.83,0,*7F
1498762979.28,9299,16.5,73064.8,3.57,-6.01,-16.59,0,*7B
1498762980.5,9300,16.5,73068.8,3.57,-6.05,-16.59,0,*7E
1498762981.72,9301,16.5,73064.5,3.57,-6.01,-16.79,0,*79
1498762982.94,9302,16.5,73064.0,3.57,-6.01,-16.59,0,*78
1498762984.14,9303,16.5,73058.8,3.55,-6.01,-16.79,0,*79
1498762985.33,9304,16.5,73052.0,3.55,-6.01,-16.55,0,*70
1498762986.52,9305,16.56,73044.8,3.55,-5.97,-16.45,0,*7C
1498762987.74,9306,16.5,73038.8,3.57,-6.01,-16.79,0,*7E
1498762988.93,9307,16.5,73038.0,3.55,-6.05,-16.89,0,*76
1498762990.14,9308,16.5,73038.8,3.57,-6.05,-16.89,0,*7B
1498762991.39,9309,16.5,73048.5,3.57,-6.05,-17.07,0,*7D
1498762992.63,9310,16.5,73056.3,3.57,-5.89,-16.89,0,*75
1498762993.87,9311,16.5,73044.0,3.57,-5.77,-16.89,0,*75
1498762995.14,9312,16.5,73048.5,3.57,-5.65,-17.03,0,*76
1498762996.39,9313,16.5,73040.3,3.57,-5.77,-17.35,0,*71
1498762997.64,9314,16.5,73028.8,3.57,-5.97,-17.59,0,*72
1498762998.85,9315,16.5,72990.0,3.59,-5.97,-17.79,0,*7F
1498763000.07,9316,16.5,72986.3,3.57,-6.05,-17.83,0,*7F
1498763001.31,9317,16.5,72986.5,3.57,-6.05,-17.93,0,*7F
1498763002.53,9318,16.5,73000.8,3.57,-6.13,-18.07,0,*75
1498763003.78,9319,16.5,73000.8,3.57,-6.01,-17.97,0,*71
1498763005.02,9320,16.5,73026.5,3.59,-5.81,-17.59,0,*7C
1498763006.24,9321,16.5,73034.5,3.57,-5.97,-17.83,0,*73
1498763007.51,9322,16.5,73038.5,3.57,-6.19,-17.93,0,*74
1498763008.78,9323,16.5,73038.0,3.57,-6.27,-17.97,0,*7C
1498763009.99,9324,16.5,73032.0,3.59,-6.01,-17.79,0,*71
1498763011.21,9325,16.5,73036.8,3.59,-6.01,-17.79,0,*70
1498763012.45,9326,16.5,73040.5,3.57,-6.05,-17.93,0,*7D
1498763013.64,9327,16.5,73040.8,3.59,-6.13,-17.87,0,*70
1498763014.91,9328,16.5,73038.3,3.57,-6.19,-17.93,0,*7E
1498763016.15,9329,16.5,73052.0,3.59,-6.27,-17.97,0,*78
1498763017.36,9330,16.5,73058.5,3.57,-6.39,-18.07,0,*77
1498763018.59,9331,16.5,73052.8,3.57,-6.43,-18.11,0,*7C
1498763019.84,9332,16.5,73050.8,3.57,-6.43,-17.97,0,*7E
1498763021.08,9333,16.5,73060.8,3.57,-6.43,-17.97,0,*7F
1498763022.34,9334,16.5,73050.0,3.57,-6.51,-17.97,0,*7B
1498763023.55,9335,16.5,73044.3,3.59,-6.51,-18.01,0,*74
1498763024.77,9336,16.5,73042.5,3.57,-6.69,-18.21,0,*70
1498763025.98,9337,16.5,73050.0,3.57,-6.69,-18.21,0,*71
1498763027.2,9338,16.5,73054.5,3.57,-6.55,-18.21,0,*71
1498763028.4,9339,16.5,73060.5,3.59,-6.63,-18.17,0,*7E
1498763029.61,9340,16.5,73056.8,3.59,-6.63,-18.17,0,*70
1498763030.85,9341,16.5,73056.0,3.57,-6.63,-18.21,0,*7A
1498763032.04,9342,16.5,73056.0,3.59,-6.77,-18.21,0,*72
1498763033.26,9343,16.5,73054.0,3.57,-6.77,-18.21,0,*7D
1498763034.46,9344,16.5,73050.8,3.57,-6.69,-18.25,0,*71
1498763035.68,9345,16.5,73052.8,3.57,-6.77,-18.21,0,*7B
1498763036.9,9346,16.5,73056.8,3.57,-6.77,-18.21,0,*78
1498763038.12,9347,16.5,73042.8,3.57,-6.77,-18.25,0,*7D
1498763039.34,9348,16.5,73034.3,3.57,-6.81,-18.21,0,*7F
1498763040.58,9349,16.5,73008.0,3.57,-6.43,-17.79,0,*72
1498763041.8,9350,16.5,73034.5,3.57,-6.43,-17.83,0,*7F
1498763043.05,9351,16.5,73038.3,3.57,-6.39,-17.59,0,*74
1498763044.31,9352,16.5,73040.8,3.57,-6.27,-17.45,0,*75
1498763045.5,9353,16.5,73044.3,3.59,-6.39,-17.73,0,*70
1498763046.73,9354,16.5,73040.3,3.57,-6.69,-17.93,0,*72
1498763047.95,9355,16.5,73046.3,3.59,-6.73,-18.01,0,*72
1498763049.16,9356,16.5,73038.3,3.59,-6.73,-17.93,0,*75
1498763050.41,9357,16.5,73024.8,3.57,-6.81,-17.97,0,*73
1498763051.62,9358,16.5,73036.3,3.59,-6.59,-17.63,0,*7C
1498763052.83,9359,16.5,73040.0,3.59,-6.63,-17.87,0,*7E
1498763054.03,9360,16.5,73052.0,3.59,-6.89,-18.07,0,*77
1498763055.22,9361,16.5,73046.0,3.59,-6.81,-18.07,0,*7E
1498763056.44,9362,16.5,73036.0,3.59,-6.77,-18.01,0,*72
1498763057.65,9363,16.5,73024.0,3.59,-7.01,-18.17,0,*74
1498763058.84,9364,16.5,73026.5,3.59,-7.15,-18.21,0,*73
1498763060.05,9365,16.5,73016.5,3.57,-7.11,-18.25,0,*7C
1498763061.27,9366,16.5,73040.3,3.57,-7.11,-18.25,0,*7F
1498763062.52,9367,16.5,73050.8,3.57,-7.11,-18.35,0,*7F
1498763063.74,9368,16.5,73070.3,3.57,-7.11,-18.11,0,*76
1498763064.96,9369,16.5,73070.5,3.59,-6.81,-18.01,0,*70
1498763066.21,9370,16.5,73056.0,3.57,-6.81,-17.97,0,*76
1498763067.46,9371,16.5,72996.0,3.57,-6.51,-17.59,0,*78
1498763068.68,9372,16.5,72970.3,3.59,-6.51,-17.59,0,*75
1498763069.9,9373,16.5,72940.8,3.59,-6.59,-17.59,0,*7C
1498763071.11,9374,16.5,72926.5,3.61,-6.69,-17.73,0,*7B
1498763072.35,9375,16.5,72962.0,3.61,-6.73,-17.59,0,*79
1498763073.53,9376,16.5,72970.3,3.59,-6.77,-17.73,0,*7D
1498763074.74,9377,16.5,73000.0,3.61,-6.85,-17.73,0,*7A
1498763075.98,9378,16.5,73012.3,3.61,-6.85,-17.59,0,*7D
1498763077.22,9379,16.5,73012.5,3.61,-6.97,-17.69,0,*7C
1498763078.41,9380,16.5,73014.3,3.63,-6.89,-17.49,0,*75
1498763079.65,9381,16.5,73014.0,3.63,-6.97,-17.59,0,*7A
1498763080.89,9382,16.5,73004.5,3.63,-6.97,-17.55,0,*75
1498763082.13,9383,16.5,73012.5,3.63,-7.01,-17.59,0,*76
1498763083.35,9384,16.5,73012.5,3.63,-6.77,-17.21,0,*7E
1498763084.57,9385,16.5,73036.0,3.65,-6.97,-17.49,0,*79
1498763085.83,9386,16.5,73020.3,3.67,-7.35,-17.79,0,*72
1498763087.05,9387,16.5,73010.3,3.63,-7.35,-17.69,0,*76
1498763088.24,9388,16.5,73000.3,3.63,-7.49,-17.83,0,*76
1498763089.43,9389,16.5,73022.8,3.63,-7.53,-17.87,0,*78
1498763090.63,9390,16.5,73020.5,3.63,-7.39,-17.73,0,*77
1498763091.87,9391,16.5,73002.0,3.61,-7.35,-17.69,0,*73
1498763093.06,9392,16.5,73006.0,3.63,-7.53,-17.73,0,*79
1498763094.24,9393,16.5,73008.3,3.63,-7.53,-17.73,0,*78
1498763095.5,9394,16.5,73018.5,3.61,-7.39,-17.59,0,*79
1498763096.69,9395,16.5,73034.3,3.63,-7.49,-17.83,0,*7A
1498763097.88,9396,16.5,73036.8,3.63,-7.53,-17.83,0,*72
1498763099.13,9397,16.5,73036.8,3.61,-7.61,-17.83,0,*70
1498763100.37,9398,16.5,73038.3,3.63,-7.61,-17.97,0,*78
1498763101.64,9399,16.5,73036.0,3.61,-7.65,-17.97,0,*7F
1498763102.88,9400,16.5,73034.5,3.61,-7.77,-18.11,0,*7A
1498763104.11,9401,16.5,73038.5,3.61,-7.77,-18.17,0,*7D
1498763105.33,9402,16.5,73042.0,3.63,-7.77,-18.11,0,*7A
1498763106.56,9403,16.5,73046.8,3.61,-7.69,-18.25,0,*71
1498763107.81,9404,16.5,73048.0,3.59,-7.73,-18.31,0,*73
1498763109.04,9405,16.5,73054.0,3.61,-7.69,-18.17,0,*76
1498763110.24,9406,16.5,73036.3,3.61,-7.53,-18.17,0,*7C
1498763111.47,9407,16.5,73040.5,3.61,-7.69,-18.25,0,*75
1498763112.69,9408,16.5,73032.0,3.59,-7.83,-18.31,0,*70
1498763113.91,9409,16.5,73040.8,3.59,-7.73,-18.49,0,*71
1498763115.12,9410,16.5,73052.3,3.59,-7.95,-18.45,0,*7D
1498763116.37,9411,16.5,73064.5,3.59,-7.57,-18.01,0,*72
1498763117.6,9412,16.5,73036.8,3.59,-7.43,-17.79,0,*74
1498763118.81,9413,16.5,73042.3,3.59,-7.53,-17.93,0,*70
1498763120.03,9414,16.5,73070.5,3.59,-7.73,-18.17,0,*76
1498763121.24,9415,16.5,73074.0,3.59,-7.69,-18.07,0,*7D
1498763122.46,9416,16.5,73082.5,3.59,-7.87,-18.31,0,*7B
1498763123.68,9417,16.5,73058.0,3.59,-7.87,-18.31,0,*7A
1498763124.9,9418,16.5,73066.3,3.59,-7.73,-18.07,0,*7B
1498763126.14,9419,16.5,73060.0,3.59,-7.73,-17.93,0,*78
1498763127.36,9420,16.5,73078.0,3.59,-7.65,-17.87,0,*70
1498763128.6,9421,16.5,73090.0,3.59,-7.69,-18.01,0,*7C
1498763129.79,9422,16.5,73092.0,3.59,-7.87,-18.07,0,*79
1498763131.03,9423,16.5,73078.0,3.59,-7.95,-18.31,0,*7E
1498763132.27,9424,16.5,73082.8,3.59,-7.99,-18.31,0,*75
1498763133.51,9425,16.5,73074.5,3.61,-7.91,-18.17,0,*73
1498763134.74,9426,16.5,73064.3,3.61,-7.69,-17.87,0,*71
1498763136.01,9427,16.5,73066.5,3.61,-7.77,-17.97,0,*7E
1498763137.25,9428,16.5,73070.8,3.61,-7.95,-18.11,0,*7C
1498763138.49,9429,16.5,73072.0,3.61,-8.07,-18.17,0,*7F
1498763139.75,9430,16.5,73078.8,3.61,-8.03,-18.01,0,*74
1498763140.98,9431,16.5,73082.3,3.61,-7.83,-18.01,0,*72
1498763142.25,9432,16.5,73078.0,3.61,-7.95,-17.97,0,*76
1498763143.49,9433,16.5,73064.8,3.61,-7.77,-17.87,0,*7A
1498763144.71,9434,16.5,73056.8,3.59,-7.69,-17.87,0,*79
1498763145.92,9435,16.5,73056.8,3.63,-7.61,-17.69,0,*79
1498763147.16,9436,16.5,73062.3,3.61,-7.65,-17.73,0,*77
1498763148.4,9437,16.5,73084.0,3.61,-7.69,-17.83,0,*75
1498763149.66,9438,16.5,73076.5,3.61,-7.95,-17.97,0,*7C
1498763150.87,9439,16.5,73072.3,3.61,-8.21,-18.25,0,*7B
1498763152.05,9440,16.5,73080.0,3.63,-8.21,-18.41,0,*75
1498763153.27,9441,16.5,73078.3,3.63,-8.29,-18.31,0,*7B
1498763154.47,9442,16.5,73066.0,3.61,-8.29,-18.17,0,*7E
1498763155.71,9443,16.5,73068.3,3.61,-7.95,-17.87,0,*71
1498763156.95,9444,16.5,73056.0,3.61,-7.91,-17.73,0,*79
1498763158.19,9445,16.5,73050.3,3.61,-7.83,-17.59,0,*73
1498763159.38,9446,16.5,73046.0,3.63,-7.53,-17.35,0,*75
1498763160.62,9447,16.5,73046.5,3.63,-7.77,-17.59,0,*78
1498763161.84,9448,16.5,73044.8,3.63,-7.83,-17.59,0,*7C
1498763163.07,9449,16.5,73046.0,3.65,-8.03,-17.79,0,*7E
1498763164.3,9450,16.5,73054.8,3.65,-8.11,-17.83,0,*70
1498763165.52,9451,16.5,73058.8,3.65,-8.25,-17.97,0,*73
1498763166.72,9452,16.5,73068.5,3.65,-8.25,-17.83,0,*75
1498763167.94,9453,16.5,73076.8,3.65,-8.25,-17.79,0,*71
1498763169.16,9454,16.5,73068.3,3.65,-8.25,-17.79,0,*76
1498763170.4,9455,16.5,73054.3,3.67,-8.37,-17.79,0,*76
1498763171.61,9456,16.5,73060.5,3.65,-8.17,-17.35,0,*7D
1498763172.85,9457,16.5,73070.5,3.67,-8.29,-17.07,0,*72
1498763174.08,9458,16.5,73072.8,3.63,-8.45,-17.07,0,*73
1498763175.29,9459,16.5,73080.5,3.63,-8.51,-16.79,0,*7F
1498763176.48,9460,16.5,73074.8,3.63,-8.41,-16.03,0,*79
1498763177.68,9461,16.5,73068.8,3.63,-8.45,-15.75,0,*7E
1498763178.9,9462,16.5,73066.8,3.63,-8.45,-15.43,0,*78
1498763180.11,9463,16.5,73072.5,3.63,-8.41,-15.21,0,*79
1498763181.33,9464,16.5,73080.5,3.63,-8.41,-14.93,0,*76
1498763182.53,9465,16.5,73082.5,3.63,-8.33,-14.55,0,*78
1498763183.75,9466,16.5,73070.8,3.63,-8.33,-14.47,0,*78
1498763184.96,9467,16.5,73070.5,3.63,-8.33,-14.55,0,*7A
1498763186.15,9468,16.5,73058.8,3.65,-8.37,-14.69,0,*78
1498763187.36,9469,16.5,73080.0,3.63,-8.41,-14.79,0,*7F
1498763188.55,9470,16.5,73078.0,3.63,-8.33,-14.89,0,*7D
1498763189.74,9471,16.5,73060.8,3.63,-8.29,-15.15,0,*73
1498763190.96,9472,16.5,73060.5,3.61,-8.17,-15.29,0,*70
1498763192.2,9473,16.5,73050.8,3.63,-8.07,-15.35,0,*7F
1498763193.42,9474,16.5,73052.5,3.63,-8.21,-15.81,0,*73
1498763194.61,9475,16.5,73064.5,3.63,-8.29,-15.95,0,*7F
1498763195.82,9476,16.5,73066.8,3.63,-8.29,-16.23,0,*72
1498763197.05,9477,16.5,73070.3,3.61,-8.33,-16.51,0,*7F
1498763198.26,9478,16.5,73070.8,3.63,-8.41,-16.69,0,*7C
1498763199.45,9479,16.5,73062.3,3.63,-8.59,-16.97,0,*75
1498763200.67,9480,16.5,73062.5,3.63,-8.63,-17.41,0,*70
1498763201.87,9481,16.5,73070.0,3.63,-8.85,-17.69,0,*73
1498763203.06,9482,16.5,73074.0,3.63,-8.75,-17.83,0,*7B
1498763204.26,9483,16.5,73070.8,3.63,-8.85,-18.11,0,*71
1498763205.48,9484,16.5,73074.3,3.63,-8.89,-18.31,0,*78
1498763206.67,9485,16.5,73068.5,3.63,-8.97,-18.45,0,*75
1498763207.89,9486,16.5,73066.3,3.61,-9.01,-18.65,0,*78
1498763209.13,9487,16.5,73070.5,3.61,-9.11,-18.65,0,*78
1498763210.35,9488,16.5,73078.8,3.61,-9.01,-18.79,0,*7B
1498763211.56,9489,16.5,73074.3,3.61,-8.97,-18.73,0,*7E
1498763212.76,9490,16.5,73074.0,3.63,-8.89,-18.65,0,*7C
1498763214.0,9491,16.5,73072.3,3.61,-9.11,-18.73,0,*78
1498763215.21,9492,16.5,73068.5,3.63,-9.11,-18.79,0,*73
1498763216.4,9493,16.5,73068.3,3.59,-9.05,-18.79,0,*7E
1498763217.62,9494,16.5,73070.3,3.61,-9.01,-18.73,0,*7C
1498763218.86,9495,16.5,73072.3,3.61,-9.11,-18.79,0,*76
1498763220.08,9496,16.5,73072.3,3.61,-9.01,-18.73,0,*7E
1498763221.3,9497,16.5,73056.5,3.61,-9.01,-18.45,0,*7A
1498763222.53,9498,16.5,73064.8,3.63,-9.11,-18.59,0,*7B
1498763223.75,9499,16.5,73066.5,3.63,-9.11,-18.65,0,*75
1498763224.97,9500,16.5,73070.3,3.61,-9.01,-18.65,0,*77
1498763226.21,9501,16.5,73068.3,3.61,-9.01,-18.59,0,*79
1498763227.43,9502,16.5,73074.0,3.63,-9.11,-18.65,0,*76
1498763228.66,9503,16.5,73070.3,3.61,-9.15,-18.79,0,*7C
1498763229.9,9504,16.5,73066.8,3.63,-9.11,-18.59,0,*7F
1498763231.12,9505,16.5,73072.3,3.61,-9.01,-18.73,0,*75
1498763232.34,9506,16.5,73068.3,3.59,-9.01,-18.55,0,*79
1498763233.52,9507,16.5,73062.8,3.59,-9.27,-18.79,0,*72
1498763234.71,9508,16.5,73060.8,3.59,-9.19,-18.83,0,*75
1498763235.95,9509,16.5,73058.8,3.59,-9.37,-18.93,0,*79
1498763237.18,9510,16.5,73056.3,3.61,-9.31,-18.89,0,*77
1498763238.45,9511,16.5,73054.3,3.61,-9.45,-18.93,0,*7E
1498763239.66,9512,16.5,73054.0,3.61,-9.57,-19.07,0,*72
1498763240.86,9513,16.5,73050.5,3.59,-9.57,-19.07,0,*78
1498763242.06,9514,16.5,73044.0,3.59,-9.57,-19.07,0,*7F
1498763243.26,9515,16.5,73036.3,3.59,-9.61,-19.07,0,*7B
1498763244.52,9516,16.5,73042.8,3.61,-9.45,-18.93,0,*79
1498763245.72,9517,16.5,73066.0,3.59,-9.49,-18.99,0,*75
1498763246.95,9518,16.5,73060.8,3.57,-9.61,-19.07,0,*78
1498763248.16,9519,16.5,73044.5,3.59,-9.27,-18.59,0,*7F
1498763249.37,9520,16.5,73046.8,3.59,-9.45,-18.83,0,*76
1498763250.6,9521,16.5,73050.3,3.57,-9.53,-19.03,0,*77
1498763251.8,9522,16.5,73068.3,3.59,-9.57,-18.99,0,*7C
1498763253.03,9523,16.5,73068.3,3.59,-9.57,-18.93,0,*77
1498763254.23,9524,16.5,73068.0,3.59,-9.57,-18.99,0,*7A
1498763255.46,9525,16.5,73066.8,3.57,-9.49,-18.99,0,*7A
1498763256.66,9526,16.5,73060.5,3.59,-9.57,-18.99,0,*78
1498763257.88,9527,16.5,73062.5,3.57,-9.75,-19.17,0,*70
1498763259.1,9528,16.5,73062.3,3.57,-9.75,-19.17,0,*7F
1498763260.32,9529,16.5,73060.8,3.57,-9.75,-19.17,0,*7E
1498763261.54,9530,16.5,73066.5,3.57,-9.75,-19.13,0,*72
1498763262.75,9531,16.5,73060.0,3.57,-9.67,-19.03,0,*71
1498763263.97,9532,16.5,73068.0,3.57,-9.75,-19.13,0,*70
1498763265.23,9533,16.5,73062.5,3.57,-9.61,-18.89,0,*76
1498763266.46,9534,16.5,73062.5,3.57,-9.49,-18.83,0,*71
1498763267.69,9535,16.5,73062.5,3.57,-9.61,-18.83,0,*7A
1498763268.89,9536,16.5,73068.3,3.59,-9.57,-18.83,0,*72
1498763270.13,9537,16.5,73082.3,3.57,-9.49,-18.83,0,*72
1498763271.36,9538,16.5,73080.5,3.57,-9.53,-18.83,0,*76
1498763272.59,9539,16.5,73078.0,3.59,-9.57,-18.93,0,*7C
1498763273.85,9540,16.5,73066.5,3.57,-9.61,-18.89,0,*72
1498763275.08,9541,16.5,73068.0,3.57,-9.49,-18.83,0,*73
1498763276.29,9542,16.5,73034.0,3.59,-9.45,-18.83,0,*72
1498763277.51,9543,16.5,73034.5,3.57,-9.75,-19.13,0,*76
1498763278.72,9544,16.5,73032.0,3.57,-9.67,-18.99,0,*71
1498763279.93,9545,16.5,73028.8,3.57,-9.75,-19.03,0,*71
1498763281.15,9546,16.5,73026.8,3.57,-9.79,-19.17,0,*7B
1498763282.34,9547,16.5,73026.0,3.59,-9.75,-19.13,0,*7C
1498763283.58,9548,16.5,73056.0,3.57,-9.89,-19.27,0,*79
1498763284.81,9549,16.5,73040.5,3.57,-9.53,-18.99,0,*7B
1498763286.01,9550,16.5,73050.8,3.59,-9.61,-18.99,0,*7C
1498763287.25,9551,16.5,73050.0,3.59,-9.45,-18.93,0,*71
1498763288.48,9552,16.5,73062.0,3.57,-9.61,-18.99,0,*70
1498763289.69,9553,16.5,73046.8,3.57,-9.67,-19.03,0,*75
1498763290.89,9554,16.5,73062.0,3.59,-9.57,-18.79,0,*73
1498763292.1,9555,16.5,73066.5,3.59,-9.45,-18.79,0,*71
1498763293.31,9556,16.5,73046.5,3.59,-9.37,-18.79,0,*77
1498763294.54,9557,16.5,73048.3,3.61,-9.27,-18.59,0,*7E
1498763295.75,9558,16.5,73060.0,3.61,-9.27,-18.65,0,*7E
1498763296.97,9559,16.5,73044.3,3.63,-9.41,-18.65,0,*7D
1498763298.21,9560,16.5,73022.5,3.61,-9.45,-18.73,0,*76
1498763299.45,9561,16.5,73008.5,3.61,-9.15,-18.41,0,*73
1498763300.67,9562,16.5,73036.0,3.63,-9.11,-18.45,0,*72
1498763301.86,9563,16.5,73038.3,3.63,-9.27,-18.65,0,*74
1498763303.09,9564,16.5,73046.5,3.65,-9.53,-18.89,0,*74
1498763304.29,9565,16.5,73048.5,3.65,-9.67,-19.13,0,*70
1498763305.5,9566,16.5,73056.3,3.65,-9.79,-19.31,0,*7C
1498763306.72,9567,16.5,73056.8,3.65,-9.89,-19.41,0,*75
1498763307.93,9568,16.5,73044.0,3.65,-9.93,-19.41,0,*71
1498763309.11,9569,16.44,73054.8,3.63,-9.93,-19.47,0,*70
1498763310.29,9570,16.5,73058.8,3.63,-9.93,-19.47,0,*78
1498763311.47,9571,16.5,73058.5,3.63,-9.93,-19.47,0,*79
1498763312.7,9572,16.5,73060.8,3.61,-9.93,-19.23,0,*7A
1498763313.88,9573,16.5,73060.8,3.63,-9.93,-19.37,0,*7C
1498763315.09,9574,16.44,73048.3,3.61,-9.97,-19.37,0,*7D
1498763316.31,9575,16.5,73038.5,3.61,-9.79,-19.17,0,*7E
1498763317.49,9576,16.5,73058.5,3.63,-9.97,-19.47,0,*7A
1498763318.7,9577,16.5,73030.8,3.63,-9.79,-19.31,0,*7A
1498763319.93,9578,16.5,73016.8,3.61,-9.83,-19.37,0,*74
1498763321.15,9579,16.5,73016.8,3.61,-9.79,-19.17,0,*72
1498763322.38,9580,16.5,73046.5,3.61,-9.67,-18.93,0,*76